2021-03-08 00:07:34 r, 21.00m,0000000001Hz,0001346247c,0000002.922s, 012.2C,00002191
2021-03-08 00:17:34 r, 21.00m,0000000001Hz,0001352502c,0000002.935s, 012.2C,00002191
2021-03-08 00:27:34 r, 21.00m,0000000001Hz,0001353410c,0000002.937s, 012.2C,00002191
2021-03-08 00:37:35 r, 21.00m,0000000001Hz,0001348130c,0000002.926s, 012.2C,00002191
2021-03-08 00:47:34 r, 21.01m,0000000001Hz,0001363143c,0000002.958s, 012.2C,00002191
2021-03-08 00:57:35 r, 21.02m,0000000001Hz,0001372144c,0000002.978s, 011.9C,00002191
2021-03-08 01:07:34 r, 21.02m,0000000000Hz,0001383671c,0000003.003s, 011.9C,00002191
2021-03-08 01:17:34 r, 21.02m,0000000000Hz,0001383804c,0000003.003s, 011.9C,00002191
2021-03-08 01:27:34 r, 21.03m,0000000001Hz,0001390844c,0000003.018s, 011.6C,00002191
2021-03-08 01:37:36 r, 21.00m,0000000001Hz,0001352291c,0000002.935s, 011.6C,00002191
2021-03-08 01:47:34 r, 20.99m,0000000000Hz,0001342308c,0000002.913s, 011.6C,00002191
2021-03-08 01:57:36 r, 21.04m,0000000000Hz,0001404692c,0000003.048s, 011.6C,00002191
2021-03-08 02:07:34 r, 20.94m,0000000001Hz,0001280588c,0000002.779s, 011.2C,00002191
2021-03-08 02:17:34 r, 21.04m,0000000000Hz,0001395794c,0000003.029s, 011.2C,00002191
2021-03-08 02:27:36 r, 21.04m,0000000001Hz,0001395614c,0000003.029s, 010.9C,00002191
2021-03-08 02:37:34 r, 21.02m,0000000000Hz,0001383700c,0000003.003s, 010.9C,00002191
2021-03-08 02:47:34 r, 21.04m,0000000000Hz,0001394660c,0000003.027s, 010.9C,00002191
2021-03-08 02:57:34 r, 21.04m,0000000000Hz,0001399992c,0000003.038s, 010.9C,00002191
2021-03-08 03:07:35 r, 21.04m,0000000000Hz,0001398152c,0000003.034s, 010.9C,00002191
2021-03-08 03:17:34 r, 20.91m,0000000001Hz,0001240088c,0000002.691s, 010.9C,00002191
2021-03-08 03:27:35 r, 20.99m,0000000000Hz,0001342664c,0000002.914s, 010.9C,00002191
2021-03-08 03:37:34 r, 21.01m,0000000000Hz,0001363807c,0000002.960s, 010.9C,00002191
2021-03-08 03:47:34 r, 21.00m,0000000001Hz,0001352181c,0000002.934s, 010.6C,00002191
2021-03-08 03:57:34 r, 21.00m,0000000000Hz,0001343775c,0000002.916s, 010.6C,00002191
2021-03-08 04:07:36 r, 20.96m,0000000000Hz,0001305766c,0000002.834s, 010.6C,00002191
2021-03-08 04:17:34 r, 20.89m,0000000000Hz,0001218874c,0000002.645s, 010.6C,00002191
2021-03-08 04:27:36 r, 20.82m,0000000001Hz,0001148843c,0000002.493s, 010.6C,00002191
2021-03-08 04:37:34 r, 20.94m,0000000000Hz,0001278782c,0000002.775s, 010.6C,00002191
2021-03-08 04:47:34 r, 20.94m,0000000000Hz,0001277393c,0000002.772s, 010.6C,00002191
2021-03-08 04:57:34 r, 20.92m,0000000000Hz,0001259423c,0000002.733s, 010.6C,00002191
2021-03-08 05:07:35 r, 20.90m,0000000001Hz,0001236719c,0000002.684s, 010.6C,00002191
2021-03-08 05:17:34 r, 20.89m,0000000000Hz,0001221973c,0000002.652s, 010.6C,00002191
2021-03-08 05:27:34 r, 20.82m,0000000001Hz,0001144686c,0000002.484s, 010.3C,00002191
2021-03-08 05:37:36 r, 20.55m,0000000000Hz,0000896550c,0000001.946s, 010.3C,00002191
2021-03-08 05:47:34 r, 19.81m,0000000001Hz,0000457595c,0000000.993s, 010.3C,00002191
2021-03-08 05:57:34 r, 18.54m,0000000003Hz,0000143259c,0000000.311s, 010.3C,00002191
2021-03-08 06:07:36 r, 16.95m,0000000014Hz,0000033140c,0000000.072s, 010.3C,00002191
2021-03-08 06:17:34 r, 15.02m,0000000081Hz,0000005627c,0000000.012s, 010.3C,00002191
2021-03-08 06:27:34 r, 12.79m,0000000649Hz,0000000000c,0000000.000s, 010.3C,00002191
2021-03-08 06:37:34 r, 10.59m,0000004945Hz,0000000000c,0000000.000s, 010.3C,00002191
2021-03-08 06:47:35 r, 08.84m,0000024600Hz,0000000000c,0000000.000s, 009.9C,00002191
2021-03-08 06:57:34 r, 07.68m,0000071919Hz,0000000000c,0000000.000s, 010.3C,00002191
2021-03-08 07:07:35 r, 06.89m,0000149455Hz,0000000000c,0000000.000s, 009.9C,00002191
2021-03-08 07:17:34 r, 06.34m,0000246891Hz,0000000000c,0000000.000s, 010.3C,00002191
2021-03-08 07:27:34 r, 05.97m,0000347933Hz,0000000000c,0000000.000s, 011.2C,00002191
2021-03-08 07:37:34 r, 00.00m,0000435135Hz,0000000000c,0000000.000s, 012.2C,00002191
2021-03-08 07:47:36 r, 00.00m,0000504012Hz,0000000000c,0000000.000s, 013.5C,00002191
2021-03-08 07:57:34 r, 00.00m,0000566715Hz,0000000000c,0000000.000s, 014.8C,00002191
2021-03-08 08:07:36 r, 00.00m,0000597490Hz,0000000000c,0000000.000s, 015.7C,00002191
2021-03-08 08:17:34 r, 00.00m,0000597391Hz,0000000000c,0000000.000s, 016.7C,00002191
2021-03-08 08:27:34 r, 00.00m,0000597228Hz,0000000000c,0000000.000s, 017.4C,00002191
2021-03-08 08:37:38 r, 00.00m,0000597112Hz,0000000000c,0000000.000s, 018.6C,00002191
2021-03-08 08:47:34 r, 00.00m,0000597112Hz,0000000000c,0000000.000s, 019.6C,00002191
2021-03-08 08:57:46 r, 00.00m,0000596971Hz,0000000000c,0000000.000s, 020.9C,00002191
2021-03-08 09:07:34 r, 00.00m,0000596852Hz,0000000000c,0000000.000s, 021.9C,00002191
2021-03-08 09:17:35 r, 00.00m,0000596831Hz,0000000000c,0000000.000s, 022.5C,00002191
2021-03-08 09:27:34 r, 00.00m,0000596823Hz,0000000000c,0000000.000s, 022.5C,00002191
2021-03-08 09:37:35 r, 00.00m,0000596765Hz,0000000000c,0000000.000s, 022.2C,00002191
2021-03-08 09:47:36 r, 00.00m,0000596783Hz,0000000000c,0000000.000s, 023.2C,00002191
2021-03-08 09:57:34 r, 00.00m,0000596605Hz,0000000000c,0000000.000s, 023.8C,00002191
2021-03-08 10:07:35 r, 00.00m,0000596595Hz,0000000000c,0000000.000s, 024.8C,00002191
2021-03-08 10:17:35 r, 00.00m,0000596428Hz,0000000000c,0000000.000s, 025.1C,00002191
2021-03-08 10:27:36 r, 00.00m,0000596262Hz,0000000000c,0000000.000s, 026.4C,00002191
2021-03-08 10:37:36 r, 00.00m,0000596137Hz,0000000000c,0000000.000s, 027.3C,00002191
2021-03-08 10:47:34 r, 00.00m,0000596014Hz,0000000000c,0000000.000s, 028.0C,00002191
2021-03-08 10:57:34 r, 00.00m,0000596086Hz,0000000000c,0000000.000s, 028.6C,00002191
2021-03-08 11:07:34 r, 00.00m,0000595878Hz,0000000000c,0000000.000s, 029.3C,00002191
2021-03-08 11:17:35 r, 00.00m,0000595991Hz,0000000000c,0000000.000s, 029.3C,00002191
2021-03-08 11:27:34 r, 00.00m,0000596023Hz,0000000000c,0000000.000s, 029.0C,00002191
2021-03-08 11:37:35 r, 00.00m,0000595940Hz,0000000000c,0000000.000s, 029.0C,00002191
2021-03-08 11:47:34 r, 00.00m,0000596147Hz,0000000000c,0000000.000s, 028.0C,00002191
2021-03-08 11:57:34 r, 00.00m,0000596053Hz,0000000000c,0000000.000s, 028.0C,00002191
2021-03-08 12:07:34 r, 00.00m,0000595955Hz,0000000000c,0000000.000s, 029.0C,00002191
2021-03-08 12:17:36 r, 00.00m,0000595741Hz,0000000000c,0000000.000s, 029.9C,00002191
2021-03-08 12:27:34 r, 00.00m,0000595678Hz,0000000000c,0000000.000s, 030.9C,00002191
2021-03-08 12:37:36 r, 00.00m,0000595484Hz,0000000000c,0000000.000s, 032.2C,00002191
2021-03-08 12:47:35 r, 00.00m,0000595525Hz,0000000000c,0000000.000s, 032.8C,00002191
2021-03-08 12:57:34 r, 00.00m,0000595402Hz,0000000000c,0000000.000s, 033.5C,00002191
2021-03-08 13:07:36 r, 00.00m,0000595247Hz,0000000000c,0000000.000s, 033.8C,00002191
2021-03-08 13:17:35 r, 00.00m,0000595214Hz,0000000000c,0000000.000s, 034.8C,00002191
2021-03-08 13:27:34 r, 00.00m,0000595206Hz,0000000000c,0000000.000s, 035.1C,00002191
2021-03-08 13:37:34 r, 00.00m,0000595135Hz,0000000000c,0000000.000s, 035.1C,00002191
2021-03-08 13:47:35 r, 00.00m,0000595129Hz,0000000000c,0000000.000s, 035.1C,00002191
2021-03-08 13:57:34 r, 00.00m,0000595177Hz,0000000000c,0000000.000s, 034.8C,00002191
2021-03-08 14:07:35 r, 00.00m,0000595219Hz,0000000000c,0000000.000s, 034.4C,00002191
2021-03-08 14:17:35 r, 00.00m,0000595204Hz,0000000000c,0000000.000s, 034.8C,00002191
2021-03-08 14:27:34 r, 00.00m,0000595210Hz,0000000000c,0000000.000s, 034.8C,00002191
2021-03-08 14:37:35 r, 00.00m,0000595271Hz,0000000000c,0000000.000s, 034.8C,00002191
2021-03-08 14:47:36 r, 00.00m,0000595319Hz,0000000000c,0000000.000s, 034.4C,00002191
2021-03-08 14:57:34 r, 00.00m,0000595377Hz,0000000000c,0000000.000s, 033.8C,00002191
2021-03-08 15:07:36 r, 00.00m,0000595494Hz,0000000000c,0000000.000s, 033.1C,00002191
2021-03-08 15:17:35 r, 00.00m,0000595457Hz,0000000000c,0000000.000s, 032.5C,00002191
2021-03-08 15:27:34 r, 00.00m,0000595484Hz,0000000000c,0000000.000s, 032.2C,00002191
2021-03-08 15:37:35 r, 00.00m,0000595556Hz,0000000000c,0000000.000s, 031.5C,00002191
2021-03-08 15:47:35 r, 00.00m,0000595677Hz,0000000000c,0000000.000s, 030.9C,00002191
2021-03-08 15:57:34 r, 00.00m,0000595776Hz,0000000000c,0000000.000s, 029.9C,00002191
2021-03-08 16:07:35 r, 00.00m,0000595853Hz,0000000000c,0000000.000s, 029.6C,00002191
2021-03-08 16:17:35 r, 00.00m,0000595959Hz,0000000000c,0000000.000s, 029.3C,00002191
2021-03-08 16:27:34 r, 00.00m,0000595888Hz,0000000000c,0000000.000s, 029.0C,00002191
2021-03-08 16:37:35 r, 00.00m,0000596026Hz,0000000000c,0000000.000s, 028.6C,00002191
2021-03-08 16:47:36 r, 00.00m,0000596106Hz,0000000000c,0000000.000s, 028.3C,00002191
2021-03-08 16:57:34 r, 00.00m,0000596191Hz,0000000000c,0000000.000s, 027.7C,00002191
2021-03-08 17:07:36 r, 00.00m,0000596180Hz,0000000000c,0000000.000s, 027.3C,00002191
2021-03-08 17:17:35 r, 00.00m,0000596274Hz,0000000000c,0000000.000s, 027.0C,00002191
2021-03-08 17:27:34 r, 00.00m,0000596295Hz,0000000000c,0000000.000s, 026.4C,00002191
2021-03-08 17:37:35 r, 00.00m,0000596387Hz,0000000000c,0000000.000s, 025.7C,00002191
2021-03-08 17:47:35 r, 00.00m,0000512001Hz,0000000000c,0000000.000s, 024.8C,00002191
2021-03-08 17:57:34 r, 06.01m,0000333833Hz,0000000000c,0000000.000s, 023.8C,00002191
2021-03-08 18:07:35 r, 06.63m,0000187883Hz,0000000000c,0000000.000s, 023.2C,00002191
2021-03-08 18:17:35 r, 07.37m,0000095669Hz,0000000000c,0000000.000s, 022.5C,00002191
2021-03-08 18:27:34 r, 08.44m,0000035768Hz,0000000000c,0000000.000s, 021.9C,00002191
2021-03-08 18:37:35 r, 09.98m,0000008582Hz,0000000000c,0000000.000s, 021.2C,00002191
2021-03-08 18:47:37 r, 12.02m,0000001318Hz,0000000000c,0000000.000s, 020.9C,00002191
2021-03-08 18:57:34 r, 14.22m,0000000173Hz,0000000000c,0000000.000s, 020.6C,00002191
2021-03-08 19:07:35 r, 16.29m,0000000026Hz,0000017932c,0000000.039s, 020.3C,00002191
2021-03-08 19:17:35 r, 17.81m,0000000006Hz,0000072979c,0000000.158s, 019.9C,00002191
2021-03-08 19:27:34 r, 19.11m,0000000002Hz,0000242005c,0000000.525s, 019.9C,00002191
2021-03-08 19:37:36 r, 19.35m,0000000002Hz,0000301415c,0000000.654s, 019.6C,00002191
2021-03-08 19:47:35 r, 19.53m,0000000001Hz,0000358186c,0000000.777s, 019.6C,00002191
2021-03-08 19:57:34 r, 20.26m,0000000001Hz,0000691521c,0000001.501s, 019.6C,00002191
2021-03-08 20:07:39 r, 20.30m,0000000001Hz,0000717000c,0000001.556s, 019.0C,00002191
2021-03-08 20:17:35 r, 20.20m,0000000001Hz,0000652142c,0000001.415s, 018.6C,00002191
2021-03-08 20:27:34 r, 20.10m,0000000001Hz,0000597019c,0000001.296s, 018.0C,00002191
2021-03-08 20:37:35 r, 19.47m,0000000002Hz,0000336139c,0000000.729s, 018.0C,00002191
2021-03-08 20:47:35 r, 20.00m,0000000001Hz,0000542456c,0000001.177s, 018.0C,00002191
2021-03-08 20:57:34 r, 20.18m,0000000001Hz,0000643640c,0000001.397s, 018.0C,00002191
2021-03-08 21:07:35 r, 19.94m,0000000001Hz,0000512788c,0000001.113s, 018.0C,00002191
2021-03-08 21:17:36 r, 19.63m,0000000001Hz,0000388071c,0000000.842s, 017.7C,00002191
2021-03-08 21:27:34 r, 19.67m,0000000001Hz,0000401355c,0000000.871s, 018.0C,00002191
2021-03-08 21:37:36 r, 19.58m,0000000001Hz,0000372520c,0000000.808s, 018.3C,00002191
2021-03-08 21:47:35 r, 19.53m,0000000002Hz,0000355411c,0000000.771s, 018.3C,00002191
2021-03-08 21:57:34 r, 19.60m,0000000001Hz,0000379158c,0000000.823s, 018.6C,00002191
2021-03-08 22:07:34 r, 19.56m,0000000002Hz,0000364915c,0000000.792s, 018.6C,00002191
2021-03-08 22:17:35 r, 19.62m,0000000001Hz,0000387025c,0000000.840s, 018.6C,00002191
2021-03-08 22:27:36 r, 19.36m,0000000002Hz,0000305507c,0000000.663s, 019.0C,00002191
2021-03-08 22:37:34 r, 19.52m,0000000001Hz,0000354267c,0000000.769s, 019.0C,00002191
2021-03-08 22:47:35 r, 19.60m,0000000002Hz,0000379201c,0000000.823s, 019.0C,00002191
2021-03-08 22:57:35 r, 19.52m,0000000001Hz,0000353345c,0000000.767s, 019.0C,00002191
2021-03-08 23:07:34 r, 19.41m,0000000001Hz,0000317889c,0000000.690s, 019.0C,00002191
2021-03-08 23:17:36 r, 19.41m,0000000001Hz,0000317978c,0000000.690s, 018.6C,00002191
2021-03-08 23:27:35 r, 19.33m,0000000002Hz,0000297534c,0000000.646s, 018.6C,00002191
2021-03-08 23:37:34 r, 19.53m,0000000002Hz,0000356012c,0000000.773s, 018.6C,00002191
2021-03-08 23:47:36 r, 19.33m,0000000001Hz,0000297550c,0000000.646s, 018.3C,00002191
2021-03-08 23:57:35 r, 19.42m,0000000001Hz,0000323526c,0000000.702s, 018.3C,00002191
